[Date Prev][Date Next][Thread Prev][Thread Next] - [Date Index][Thread Index][Author Index]
2 Line ISS Keps 6-16
- Subject: [sarex] 2 Line ISS Keps 6-16
- From: "Dave Larsen PhD" <doc@xxxxxxxxxxx>
- Date: Sun, 16 Jun 2002 02:49:47 -0700
ISS
1 25544U 98067A 02167.06083068 .00059188 00000-0 78186-3 0 5683
2 25544 51.6390 58.5505 0007083 238.2837 261.5623 15.57756061203851
----
Via the sarex mailing list at AMSAT.ORG courtesy of AMSAT-NA.
To unsubscribe, send "unsubscribe sarex" to Majordomo@amsat.org
AMSAT Home